Location: Plainartige
(45.6866°N, 1.7993°E)
Time: 15:53:57
(UTC+00:00)

X-37B - Pass Details

Date: 03 February 2022
Orbit: 328 x 343 km, 45.0° (Epoch: 15 May)

Event Time Altitude Azimuth Distance (km) Brightness Sun altitude
Rises 18:20:19 0° 274° (W) 2,120 6.0 -14.0°
Reaches altitude 10° 18:22:20 10° 272° (W) 1,278 4.6 -14.3°
Maximum altitude 18:25:11 72° 188° (S) 356 0.4 -14.8°
Enters shadow 18:26:07 38° 113° (ESE) 532 0.8 -15.0°
